Location: Newark
(44.6394°N, 22.2943°E)
Time: 22:22:49
(UTC+00:00)

Tiangong - Visible Passes

Search period start: 20 January 2022 00:00
Search period end: 30 January 2022 00:00
Orbit: 383 x 386 km, 41.5° (Epoch: 20 January)

Date Brightness Start Highest point End Pass type
(mag) Time Alt. Az. Time Alt. Az. Time Alt. Az.
26 Jan 4.1 17:49:03 10° SSW 17:49:14 11° SSW 17:49:14 11° SSW visible
27 Jan 3.4 16:50:18 10° S 16:51:51 13° SSE 16:52:29 12° SE visible
28 Jan 2.7 17:25:43 10° SW 17:27:53 25° S 17:27:53 25° S visible
29 Jan 3.0 16:26:25 10° SSW 16:28:47 20° SSE 16:30:59 11° ESE visible
29 Jan 3.8 18:02:11 10° WSW 18:03:11 18° WSW 18:03:11 18° WSW visible
